TimeCST,TemperatureF,Dew PointF,Humidity,Sea Level PressureIn,VisibilityMPH,Wind Direction,Wind SpeedMPH,Gust SpeedMPH,PrecipitationIn,Events,Conditions,WindDirDegrees,DateUTC
12:06 AM,23.0,21.2,93,30.03,7.0,Calm,Calm,-,N/A,,Clear,0,2012-11-19 06:06:00
12:26 AM,23.0,21.2,93,30.03,7.0,Calm,Calm,-,N/A,,Clear,0,2012-11-19 06:26:00
12:46 AM,24.8,21.2,86,30.02,7.0,Calm,Calm,-,N/A,,Clear,0,2012-11-19 06:46:00
1:06 AM,24.8,21.2,86,30.02,7.0,Calm,Calm,-,N/A,,Clear,0,2012-11-19 07:06:00
1:26 AM,24.8,21.2,86,30.02,7.0,Calm,Calm,-,N/A,,Clear,0,2012-11-19 07:26:00
1:46 AM,24.8,23.0,93,30.02,7.0,Calm,Calm,-,N/A,,Clear,0,2012-11-19 07:46:00
2:06 AM,28.4,26.6,93,30.03,10.0,Calm,Calm,-,N/A,,Scattered Clouds,0,2012-11-19 08:06:00
2:26 AM,28.4,26.6,93,30.03,7.0,Calm,Calm,-,N/A,,Mostly Cloudy,0,2012-11-19 08:26:00
2:46 AM,28.4,26.6,93,30.02,7.0,Calm,Calm,-,N/A,,Mostly Cloudy,0,2012-11-19 08:46:00
3:06 AM,28.4,26.6,93,30.03,7.0,Calm,Calm,-,N/A,,Overcast,0,2012-11-19 09:06:00
3:26 AM,28.4,26.6,93,30.02,7.0,Calm,Calm,-,N/A,,Overcast,0,2012-11-19 09:26:00
3:46 AM,30.2,28.4,93,30.02,7.0,Calm,Calm,-,N/A,,Mostly Cloudy,0,2012-11-19 09:46:00
4:06 AM,30.2,28.4,93,30.02,7.0,Calm,Calm,-,N/A,,Scattered Clouds,0,2012-11-19 10:06:00
4:26 AM,30.2,28.4,93,30.01,7.0,Calm,Calm,-,N/A,,Scattered Clouds,0,2012-11-19 10:26:00
4:46 AM,30.2,28.4,93,30.01,10.0,Calm,Calm,-,N/A,,Overcast,0,2012-11-19 10:46:00
5:06 AM,30.2,28.4,93,30.01,10.0,Calm,Calm,-,N/A,,Mostly Cloudy,0,2012-11-19 11:06:00
5:26 AM,30.2,28.4,93,30.01,10.0,Calm,Calm,-,N/A,,Mostly Cloudy,0,2012-11-19 11:26:00
5:46 AM,30.2,28.4,93,30.01,10.0,Calm,Calm,-,N/A,,Mostly Cloudy,0,2012-11-19 11:46:00
6:06 AM,30.2,28.4,93,30.01,10.0,Calm,Calm,-,N/A,,Scattered Clouds,0,2012-11-19 12:06:00
6:26 AM,30.2,28.4,93,30.00,10.0,Calm,Calm,-,N/A,,Scattered Clouds,0,2012-11-19 12:26:00
6:46 AM,30.2,28.4,93,30.00,10.0,Calm,Calm,-,N/A,,Clear,0,2012-11-19 12:46:00
7:26 AM,33.8,30.2,87,30.01,10.0,Calm,Calm,-,N/A,,Scattered Clouds,0,2012-11-19 13:26:00
7:46 AM,33.8,32.0,93,30.01,10.0,Calm,Calm,-,N/A,,Clear,0,2012-11-19 13:46:00
8:06 AM,35.6,33.8,93,30.00,10.0,SSE,3.5,-,N/A,,Scattered Clouds,150,2012-11-19 14:06:00
8:26 AM,39.2,37.4,93,30.01,10.0,SSE,4.6,-,N/A,,Scattered Clouds,160,2012-11-19 14:26:00
8:46 AM,41.0,37.4,87,30.01,10.0,SSE,3.5,-,N/A,,Scattered Clouds,160,2012-11-19 14:46:00
9:06 AM,42.8,37.4,81,30.00,-9999.0,SSE,6.9,-,N/A,Thunderstorm,Thunderstorm,160,2012-11-19 15:06:00
9:26 AM,44.6,35.6,71,30.00,10.0,SSE,8.1,-,N/A,Thunderstorm,Mostly Cloudy,160,2012-11-19 15:26:00
9:46 AM,46.4,35.6,66,30.01,10.0,South,9.2,-,N/A,Thunderstorm,Scattered Clouds,180,2012-11-19 15:46:00
10:06 AM,46.4,35.6,66,30.02,10.0,South,5.8,-,N/A,Thunderstorm,Scattered Clouds,190,2012-11-19 16:06:00
10:26 AM,46.4,35.6,66,30.02,10.0,South,3.5,-,N/A,,Scattered Clouds,170,2012-11-19 16:26:00
10:46 AM,46.4,35.6,66,30.02,10.0,SSW,5.8,-,N/A,Rain,Light Rain,200,2012-11-19 16:46:00
11:06 AM,46.4,35.6,66,30.01,10.0,South,4.6,-,N/A,Rain,Light Rain,180,2012-11-19 17:06:00
11:26 AM,46.4,37.4,71,30.00,10.0,South,3.5,-,N/A,,Mostly Cloudy,180,2012-11-19 17:26:00
11:46 AM,50.0,37.4,62,29.98,10.0,SSE,3.5,-,N/A,,Scattered Clouds,160,2012-11-19 17:46:00
12:06 PM,48.2,37.4,66,29.98,10.0,South,3.5,-,N/A,,Mostly Cloudy,180,2012-11-19 18:06:00
12:26 PM,48.2,37.4,66,29.98,10.0,South,3.5,-,N/A,,Overcast,180,2012-11-19 18:26:00
12:46 PM,48.2,37.4,66,29.98,10.0,South,4.6,-,N/A,,Overcast,190,2012-11-19 18:46:00
1:06 PM,48.2,37.4,66,29.97,10.0,South,3.5,-,N/A,,Overcast,180,2012-11-19 19:06:00
1:26 PM,50.0,37.4,62,29.97,10.0,South,6.9,-,N/A,,Mostly Cloudy,170,2012-11-19 19:26:00
1:46 PM,50.0,35.6,58,29.96,10.0,South,3.5,-,N/A,,Clear,180,2012-11-19 19:46:00
2:06 PM,51.8,37.4,58,29.97,10.0,South,3.5,-,N/A,,Clear,170,2012-11-19 20:06:00
2:26 PM,51.8,37.4,58,29.97,10.0,South,5.8,-,N/A,,Clear,190,2012-11-19 20:26:00
2:46 PM,51.8,35.6,54,29.98,10.0,SSW,6.9,-,N/A,,Clear,200,2012-11-19 20:46:00
3:06 PM,50.0,37.4,62,29.99,10.0,SSW,4.6,-,N/A,,Clear,200,2012-11-19 21:06:00
3:26 PM,48.2,37.4,66,29.99,10.0,Calm,Calm,-,N/A,,Clear,0,2012-11-19 21:26:00
3:46 PM,48.2,37.4,66,30.00,10.0,Calm,Calm,-,N/A,,Clear,0,2012-11-19 21:46:00
4:06 PM,46.4,35.6,66,30.00,10.0,Calm,Calm,-,N/A,,Clear,0,2012-11-19 22:06:00
4:26 PM,44.6,33.8,66,30.01,10.0,Calm,Calm,-,N/A,,Clear,0,2012-11-19 22:26:00
4:46 PM,42.8,33.8,70,30.01,10.0,Calm,Calm,-,N/A,,Clear,0,2012-11-19 22:46:00
5:06 PM,39.2,32.0,75,30.01,10.0,Calm,Calm,-,N/A,,Clear,0,2012-11-19 23:06:00
5:26 PM,37.4,30.2,75,30.01,10.0,Calm,Calm,-,N/A,,Clear,0,2012-11-19 23:26:00
5:46 PM,35.6,30.2,81,30.02,10.0,Calm,Calm,-,N/A,,Clear,0,2012-11-19 23:46:00
6:06 PM,37.4,32.0,81,30.02,10.0,Calm,Calm,-,N/A,,Clear,0,2012-11-20 00:06:00
6:26 PM,33.8,28.4,81,30.03,10.0,Calm,Calm,-,N/A,,Clear,0,2012-11-20 00:26:00
6:46 PM,32.0,26.6,80,30.04,10.0,Calm,Calm,-,N/A,,Clear,0,2012-11-20 00:46:00
7:06 PM,30.2,24.8,80,30.04,10.0,Calm,Calm,-,N/A,,Clear,0,2012-11-20 01:06:00
7:26 PM,33.8,28.4,81,30.04,10.0,West,3.5,-,N/A,,Clear,270,2012-11-20 01:26:00
7:46 PM,37.4,33.8,87,30.04,10.0,Calm,Calm,-,N/A,,Clear,0,2012-11-20 01:46:00
8:06 PM,35.6,30.2,81,30.05,10.0,Calm,Calm,-,N/A,,Clear,0,2012-11-20 02:06:00
8:26 PM,32.0,28.4,87,30.05,10.0,Calm,Calm,-,N/A,,Clear,0,2012-11-20 02:26:00
9:06 PM,28.4,26.6,93,30.06,7.0,Calm,Calm,-,N/A,,Clear,0,2012-11-20 03:06:00
9:26 PM,28.4,26.6,93,30.07,7.0,Calm,Calm,-,N/A,,Clear,0,2012-11-20 03:26:00
9:46 PM,28.4,24.8,86,30.07,5.0,Calm,Calm,-,N/A,,Clear,0,2012-11-20 03:46:00
10:06 PM,26.6,24.8,93,30.07,5.0,Calm,Calm,-,N/A,,Clear,0,2012-11-20 04:06:00
10:26 PM,26.6,23.0,86,30.07,4.0,Calm,Calm,-,N/A,,Clear,0,2012-11-20 04:26:00
10:46 PM,26.6,23.0,86,30.07,5.0,Calm,Calm,-,N/A,,Clear,0,2012-11-20 04:46:00
11:06 PM,24.8,23.0,93,30.08,4.0,Calm,Calm,-,N/A,,Clear,0,2012-11-20 05:06:00
11:26 PM,24.8,21.2,86,30.09,4.0,Calm,Calm,-,N/A,,Clear,0,2012-11-20 05:26:00
11:46 PM,24.8,21.2,86,30.09,4.0,Calm,Calm,-,N/A,,Clear,0,2012-11-20 05:46:00